Wetbulb
71.95 69.53 68.17 66.46 58.42 59.70 55.95 56.67 60.56 58.54 59.59 64.10 63.93 60.75 60.30 62.43 59.68 58.43 69.56 70.52 70.94 73.97 74.71 74.30 75.76 75.70 75.24 75.89 76.07 76.13 76.13 76.38 76.38 76.53 76.40 76.20 76.33 75.87 75.76 76.15 75.99 75.81 75.02 74.97 75.20 75.37 75.37 75.18 75.08
68.25 66.27 65.71 62.40 53.86 51.75 54.16 58.63 57.56 59.74 61.84 65.02 64.55 64.29 61.97 61.02 66.78 66.71 68.26 70.62 72.45 74.24 74.26 73.78 75.77 74.72 75.54 76.02 76.07 75.93 76.25 76.23 76.10 75.92 75.67 75.57 75.97 75.84 75.27 75.69 75.77 75.20 74.53 74.23 74.21 74.14 74.21 74.63 74.77
66.80 62.16 57.70 56.06 54.33 50.22 52.78 58.03 60.02 61.51 63.80 64.48 64.05 65.98 63.60 62.85 67.04 68.10 70.66 71.98 73.12 73.79 74.44 74.03 75.70 75.85 75.72 75.84 75.97 75.90 76.00 75.95 75.65 75.41 75.36 75.13 75.34 75.42 75.67 75.59 75.42 74.77 73.97 73.48 73.09 73.09 73.00 73.00 73.15
62.22 58.92 57.35 52.42 50.70 53.34 54.98 59.04 61.18 61.71 63.40 64.93 65.20 62.47 66.75 69.05 68.46 70.26 71.97 72.70 73.03 73.44 74.07 74.82 75.75 75.85 75.72 75.74 75.80 76.05 75.82 75.82 75.57 75.41 75.20 75.15 74.75 74.91 75.37 75.11 75.12 74.32 73.47 73.11 72.97 73.08 73.27 73.16 72.74
59.04 57.77 51.97 50.06 50.87 53.12 55.58 58.85 61.86 60.98 61.37 62.71 64.82 62.30 64.34 68.56 70.91 71.35 72.12 72.41 72.03 72.79 73.45 74.24 75.62 75.77 75.75 75.76 75.50 75.95 75.75 75.70 75.55 75.16 74.67 74.55 74.35 74.41 74.41 73.89 73.35 73.24 73.11 73.46 73.46 73.31 73.45 73.65 73.64
54.15 55.93 49.22 48.06 50.37 52.98 58.12 61.11 62.36 61.60 62.55 63.47 63.61 63.28 64.81 69.64 70.07 71.40 72.39 71.89 72.56 72.49 73.02 73.94 75.13 75.70 75.57 75.64 75.90 75.80 75.90 75.87 75.62 75.32 74.92 74.31 73.91 73.76 73.39 72.86 72.73 72.89 73.23 73.51 73.88 74.17 74.05 74.16 74.49
52.01 51.62 48.15 48.70 49.47 51.28 54.55 61.84 61.11 61.71 62.05 62.68 65.13 61.48 65.24 67.54 70.61 71.64 72.05 71.92 72.00 72.99 72.94 73.41 73.69 74.82 75.62 75.67 75.72 75.95 75.80 75.75 75.50 75.32 75.15 74.47 73.73 73.38 72.83 72.54 72.50 73.15 73.51 73.56 74.07 74.07 74.23 74.44 74.64
52.42 52.18 47.59 48.67 48.34 49.61 57.50 61.65 63.03 62.40 61.61 66.81 67.35 62.77 62.44 67.56 70.21 70.52 71.04 70.99 70.91 72.26 72.52 72.37 72.39 73.51 74.11 74.73 75.62 75.85 75.70 75.67 75.64 75.02 74.60 74.15 73.44 72.79 72.50 72.54 72.42 73.41 73.42 73.54 73.57 73.79 73.87 74.16 74.43
50.42 47.75 45.36 47.09 47.95 50.01 59.47 60.18 63.57 65.21 63.31 64.05 66.03 65.93 66.19 69.36 70.34 69.08 68.14 68.53 69.01 70.53 71.52 71.64 71.95 72.44 73.29 73.48 74.34 75.42 74.90 74.80 74.80 74.43 74.22 73.74 72.12 71.99 72.04 72.19 72.41 73.26 73.67 73.50 73.24 73.11 74.34 72.51 74.20
49.15 46.55 45.98 49.32 50.91 50.64 55.84 59.63 60.32 61.94 62.02 62.75 63.44 65.65 66.70 68.53 68.32 65.66 65.68 65.91 67.28 68.75 69.85 70.70 71.56 72.46 73.02 73.13 73.71 73.95 73.70 73.79 73.61 73.58 73.80 72.95 72.32 72.04 72.10 72.43 72.18 73.54 73.54 72.97 73.17 73.46 72.05 73.70 73.73
46.74 45.72 47.80 48.98 50.62 51.42 50.79 56.07 61.18 60.70 58.93 62.62 61.23 64.74 66.09 67.26 66.66 66.37 66.71 66.56 66.50 67.98 69.73 70.35 71.43 73.06 73.04 72.62 73.13 73.44 73.22 73.44 73.95 74.14 73.84 73.40 71.73 71.98 72.49 72.96 73.66 75.29 72.39 74.22 72.74 72.54 73.20 73.45 73.67
44.18 47.00 47.83 48.48 49.96 50.03 49.40 51.39 53.63 57.98 56.27 58.22 63.53 65.81 66.92 66.12 66.40 66.16 65.46 65.34 66.62 67.86 69.08 70.12 71.19 72.26 73.08 72.81 73.15 73.14 72.69 73.23 72.83 73.02 73.87 72.53 71.61 71.49 71.68 72.22 72.98 74.80 74.49 72.82 72.47 71.51 70.89 71.80 73.30
45.47 47.54 47.40 48.67 48.26 48.95 49.59 49.56 51.87 56.86 60.80 61.87 65.69 65.42 66.29 66.63 67.02 67.59 67.27 66.24 67.28 66.95 68.53 69.40 70.45 71.20 71.97 72.71 72.85 72.76 72.55 72.68 72.64 72.88 73.14 72.04 70.95 70.81 72.81 72.51 73.04 73.29 72.51 71.90 70.88 69.74 68.96 70.31 72.31
48.03 47.19 47.72 48.57 48.41 47.54 46.46 49.46 54.62 54.21 60.76 59.88 63.88 64.41 66.20 66.85 67.07 67.16 67.58 66.35 66.68 67.05 67.96 69.09 69.42 71.51 70.82 71.81 72.69 72.59 72.85 72.83 73.15 72.51 72.43 72.31 71.34 72.13 72.81 72.04 72.13 71.31 70.88 70.81 70.30 69.19 67.91 68.00 72.02
46.78 45.56 47.54 47.21 47.27 47.16 52.56 53.34 55.46 56.63 62.57 62.63 63.43 63.55 64.70 64.91 66.86 66.83 67.54 67.33 67.63 67.67 68.11 68.91 69.58 70.93 70.44 70.54 71.97 72.37 72.58 72.57 72.31 72.05 72.38 71.89 71.95 73.20 72.23 71.37 70.67 69.82 69.03 69.10 68.18 67.17 66.87 66.09 70.89
44.92 44.60 43.82 46.52 46.85 54.26 52.57 45.87 53.83 61.69 61.27 61.45 62.86 63.25 63.44 63.60 64.35 66.85 68.18 68.28 68.70 68.66 67.92 69.29 69.43 69.85 70.65 71.03 71.81 72.01 72.39 72.19 71.95 71.89 71.75 71.57 71.71 72.55 71.16 70.36 69.33 68.06 67.74 67.99 67.66 67.11 65.72 64.87 67.72
44.20 43.51 42.17 44.59 48.48 51.66 53.17 48.14 54.54 61.35 61.39 59.50 60.47 61.60 62.68 63.68 64.87 65.97 68.03 68.55 68.48 68.95 68.81 68.75 69.58 69.15 69.86 71.14 71.46 71.41 71.76 71.55 71.49 71.30 70.96 71.18 71.48 70.74 70.09 69.44 68.06 67.31 67.01 67.15 66.88 65.72 65.49 63.22 65.21
43.17 43.43 44.32 44.25 47.99 52.53 48.08 50.43 53.70 57.45 57.95 57.72 58.57 59.73 60.42 61.47 62.88 65.52 66.62 68.18 69.19 69.06 69.06 69.21 69.22 69.73 70.11 70.45 71.18 70.59 70.42 70.71 70.78 70.07 70.26 70.75 70.94 69.60 68.88 67.64 66.26 66.04 65.70 65.47 65.70 65.23 62.92 62.42 64.58
45.13 44.79 45.00 47.15 50.40 51.38 49.98 49.80 51.13 54.05 55.10 54.73 55.55 57.03 57.76 59.08 61.92 64.31 66.41 66.26 68.70 69.03 68.90 68.93 68.49 70.02 69.29 68.75 67.93 67.90 67.23 68.19 68.20 68.90 69.23 69.52 69.45 67.82 67.09 65.32 64.24 64.37 64.65 65.34 65.22 62.88 61.07 62.43 64.82
45.95 44.70 45.31 47.94 51.49 51.46 50.27 49.40 51.09 52.27 52.13 52.98 53.32 54.29 55.78 57.93 59.23 60.98 63.71 66.22 66.95 68.33 68.37 68.36 68.68 69.72 69.51 69.08 67.68 67.04 67.19 65.52 64.96 64.26 64.47 65.50 65.32 64.92 64.56 63.80 62.86 63.06 62.07 62.63 62.09 61.15 59.29 62.73 63.73
45.76 43.49 43.24 43.56 49.33 51.37 48.42 47.84 49.53 51.93 52.36 53.25 53.90 54.76 56.01 56.32 55.83 57.51 58.84 62.13 66.15 66.24 67.12 67.49 68.31 68.62 68.33 67.65 67.70 64.55 62.88 61.83 60.90 61.05 61.82 62.57 62.44 62.20 62.32 61.99 61.45 60.44 61.21 60.44 61.60 61.11 60.85 61.53 61.77
41.00 44.70 43.36 42.82 44.59 42.95 46.62 42.43 46.63 49.34 48.74 50.22 51.38 52.88 54.42 54.33 55.91 56.45 56.87 58.54 61.74 66.07 67.06 67.32 67.77 67.97 67.45 67.68 65.03 63.15 62.96 62.02 62.75 61.94 62.49 61.06 60.95 60.15 59.39 59.61 59.87 60.27 59.44 59.67 59.81 61.15 60.90 60.59 61.40
41.94 45.01 43.67 43.34 42.76 44.40 44.53 42.74 44.89 47.92 45.94 47.48 49.98 51.71 53.32 54.12 53.18 54.29 56.23 57.32 63.58 65.34 65.82 66.29 66.23 66.29 66.18 65.36 63.83 63.00 64.12 66.20 63.86 62.75 60.81 59.56 58.96 58.71 57.70 58.49 58.95 58.84 58.32 59.02 58.78 58.95 58.02 56.35 56.59
45.24 43.65 43.25 46.20 44.39 39.24 41.44 42.18 42.12 44.93 44.45 47.62 50.08 51.37 52.52 52.73 52.43 53.11 56.13 56.25 60.19 63.44 65.49 65.51 65.62 65.09 65.19 63.55 62.06 61.27 61.90 61.81 58.20 59.57 59.61 58.37 59.14 58.64 57.49 57.89 57.68 56.41 55.78 55.13 54.89 55.76 56.59 56.80 55.86
45.30 41.14 36.64 36.55 38.55 38.64 42.68 42.09 42.47 45.55 46.75 48.38 48.54 50.27 52.43 53.01 51.93 52.22 53.43 53.92 54.36 58.97 57.66 55.70 54.36 53.18 54.67 55.33 57.98 57.90 57.42 56.90 56.74 56.50 56.72 56.02 57.46 58.06 57.72 56.79 54.42 53.04 54.93 54.66 54.15 53.27 54.50 55.38 54.93
41.47 41.50 36.42 29.17 33.39 35.84 41.52 38.21 43.28 47.48 48.82 49.18 50.26 51.02 51.23 51.99 53.05 52.73 52.87 53.76 54.03 53.84 54.53 54.79 54.42 53.78 54.18 53.53 52.67 52.67 53.05 53.14 52.40 52.36 52.36 52.40 53.04 53.44 53.12 53.58 53.53 52.78 52.63 51.17 51.47 50.73 51.76 52.84 52.72
41.42 39.83 42.47 38.06 39.46 36.78 39.93 43.20 45.18 47.29 46.60 47.36 47.95 49.46 49.89 51.47 52.61 52.91 52.43 53.14 53.86 54.31 53.96 54.14 54.22 54.19 54.14 53.74 53.19 52.23 52.01 51.33 50.11 50.24 50.00 49.36 49.19 49.10 48.45 48.65 49.54 50.65 50.03 49.71 50.01 49.45 49.73 50.67 50.65
43.99 44.67 37.80 39.48 30.37 29.29 35.70 38.31 40.65 43.76 44.87 45.45 46.31 48.07 49.68 51.05 50.90 52.61 51.99 50.97 51.76 52.73 53.81 54.46 54.78 54.39 54.32 54.08 53.34 52.73 52.28 52.36 51.47 52.29 49.69 48.41 48.62 48.90 48.23 47.42 47.51 48.17 48.02 48.48 48.17 46.97 49.11 48.74 48.90
41.83 40.98 39.75 40.00 39.66 33.00 31.58 36.29 46.27 45.59 45.32 45.14 45.98 47.81 48.43 50.06 50.39 51.09 51.08 50.80 51.02 50.95 50.63 50.78 51.36 51.85 51.55 51.61 52.48 52.45 52.70 52.52 51.38 50.52 50.75 49.28 48.45 48.13 48.28 47.76 46.97 47.20 46.66 46.81 46.50 46.88 47.61 47.67 48.02
44.35 41.68 40.59 35.71 33.56 37.91 37.03 35.72 46.43 46.69 46.57 46.60 46.05 47.58 48.77 50.75 51.04 50.67 50.15 49.86 49.44 49.32 49.11 49.30 49.88 49.87 50.06 50.06 49.83 50.74 51.19 51.39 50.77 50.01 48.96 49.08 48.22 48.67 47.64 47.65 47.10 46.72 46.03 46.58 47.03 45.97 46.55 47.08 46.53
MSLP
1011.72 1011.77 1011.72 1011.41 1011.30 1010.38 1009.85 1009.77 1009.59 1009.34 1009.42 1009.58 1009.70 1009.45 1009.47 1009.95 1010.55 1012.06 1012.95 1013.27 1013.69 1014.34 1014.98 1015.70 1016.11 1016.33 1016.55 1016.72 1016.93 1017.14 1017.28 1017.59 1017.88 1018.01 1018.14 1018.55 1018.74 1018.84 1018.99 1019.12 1019.23 1019.31 1019.41 1019.47 1019.51 1019.48 1019.49 1019.65 1019.84
1011.57 1011.77 1011.49 1011.08 1010.49 1009.89 1009.69 1009.58 1009.32 1009.31 1009.54 1009.80 1009.84 1009.82 1009.90 1010.14 1011.12 1012.24 1012.85 1013.39 1013.64 1014.39 1015.06 1015.53 1016.14 1016.33 1016.57 1016.79 1016.96 1017.19 1017.43 1017.72 1017.97 1018.15 1018.46 1018.70 1018.81 1018.93 1019.11 1019.32 1019.43 1019.50 1019.63 1019.72 1019.78 1019.76 1019.77 1019.80 1019.92
1011.42 1011.51 1010.77 1010.55 1010.22 1009.45 1009.32 1009.34 1009.19 1009.43 1009.72 1009.85 1009.92 1010.09 1010.19 1010.75 1011.40 1011.70 1012.20 1012.98 1013.64 1014.46 1015.09 1015.65 1016.11 1016.34 1016.66 1016.87 1017.07 1017.22 1017.51 1017.81 1018.03 1018.24 1018.54 1018.74 1018.88 1019.09 1019.28 1019.49 1019.63 1019.67 1019.78 1019.90 1020.04 1020.01 1020.03 1020.00 1020.07
1011.19 1011.18 1011.38 1010.37 1009.37 1009.50 1009.26 1009.23 1009.23 1009.33 1009.73 1009.95 1010.07 1009.94 1010.59 1011.04 1011.19 1011.61 1012.34 1012.77 1013.34 1014.03 1014.70 1015.61 1016.20 1016.50 1016.70 1016.95 1017.10 1017.44 1017.55 1017.87 1018.07 1018.33 1018.62 1018.86 1019.04 1019.26 1019.46 1019.57 1019.80 1019.94 1019.97 1020.07 1020.22 1020.20 1020.16 1020.11 1020.15
1011.27 1010.81 1010.25 1009.68 1009.09 1009.14 1009.11 1009.13 1009.21 1009.07 1009.39 1009.67 1009.92 1010.01 1010.30 1010.95 1011.23 1011.72 1012.11 1012.59 1013.03 1013.62 1014.43 1015.24 1015.89 1016.51 1016.83 1017.00 1017.16 1017.49 1017.70 1017.96 1018.23 1018.44 1018.78 1019.06 1019.35 1019.42 1019.54 1019.71 1019.90 1020.07 1020.08 1020.13 1020.25 1020.31 1020.26 1020.18 1020.18
1010.68 1010.57 1009.70 1008.98 1008.91 1008.85 1008.73 1008.71 1009.03 1009.20 1009.25 1009.52 1009.77 1009.75 1010.22 1011.05 1011.37 1011.78 1012.01 1012.01 1012.83 1013.34 1014.01 1014.76 1015.78 1016.21 1016.76 1017.25 1017.38 1017.54 1017.84 1018.08 1018.26 1018.50 1018.82 1019.16 1019.40 1019.60 1019.72 1019.91 1020.00 1020.19 1020.14 1020.11 1020.25 1020.25 1020.20 1020.20 1020.22
1010.08 1009.88 1009.14 1009.03 1008.77 1008.56 1008.24 1008.46 1008.56 1008.61 1008.88 1009.20 1009.25 1009.53 1010.31 1011.01 1011.41 1011.81 1011.86 1011.46 1012.44 1013.44 1014.14 1014.92 1015.45 1016.06 1016.62 1017.08 1017.57 1017.60 1017.87 1018.15 1018.37 1018.61 1018.85 1019.19 1019.48 1019.70 1019.83 1019.94 1020.07 1020.18 1020.27 1020.19 1020.27 1020.22 1020.12 1020.09 1020.08
1010.38 1009.93 1009.28 1008.99 1008.53 1008.10 1008.31 1008.52 1008.57 1008.42 1008.40 1009.25 1009.33 1009.08 1009.86 1010.19 1011.41 1012.27 1012.69 1012.19 1012.14 1013.06 1013.69 1014.55 1015.19 1015.77 1016.16 1016.65 1017.41 1017.68 1017.80 1018.16 1018.42 1018.67 1018.97 1019.23 1019.57 1019.83 1019.97 1019.95 1020.06 1020.16 1020.20 1020.21 1020.27 1020.26 1020.18 1020.12 1020.14
1010.64 1009.78 1008.86 1008.59 1008.47 1008.09 1008.44 1008.25 1008.46 1008.64 1008.55 1008.90 1008.88 1009.20 1009.54 1009.96 1011.20 1012.34 1012.65 1012.98 1013.04 1012.81 1013.58 1013.98 1014.56 1015.36 1015.97 1016.27 1016.98 1017.63 1017.87 1018.16 1018.48 1018.72 1019.02 1019.37 1019.16 1019.49 1019.78 1019.98 1020.07 1020.20 1020.30 1020.29 1020.18 1020.18 1020.13 1020.16 1020.14
1009.86 1009.41 1008.92 1008.55 1008.32 1007.93 1007.95 1008.06 1008.04 1008.43 1008.29 1008.21 1008.48 1009.25 1009.86 1010.63 1011.54 1012.31 1012.81 1012.98 1013.20 1012.76 1013.20 1013.49 1013.98 1014.81 1015.86 1016.30 1016.69 1017.23 1017.46 1017.77 1018.02 1018.36 1018.79 1019.01 1019.32 1019.57 1019.67 1020.06 1020.21 1020.28 1020.34 1020.43 1020.25 1020.21 1020.23 1019.94 1019.70
1010.02 1008.96 1008.84 1008.35 1008.18 1008.14 1007.89 1008.00 1008.04 1007.86 1007.63 1007.11 1007.08 1008.15 1009.36 1010.44 1011.33 1011.91 1012.42 1012.51 1013.13 1013.26 1013.73 1014.04 1014.17 1014.86 1015.59 1015.91 1016.46 1016.83 1017.14 1017.53 1017.89 1018.23 1018.67 1019.00 1019.20 1019.56 1019.67 1019.82 1019.82 1019.95 1020.25 1019.95 1020.15 1020.05 1019.85 1019.87 1019.79
1009.68 1009.00 1008.57 1007.91 1007.99 1008.10 1007.73 1007.50 1007.59 1007.15 1006.53 1005.93 1006.78 1007.71 1008.75 1009.65 1010.38 1011.06 1011.32 1012.09 1012.50 1013.09 1013.24 1014.10 1014.55 1015.13 1015.52 1015.86 1016.32 1016.56 1016.88 1017.29 1017.64 1017.94 1018.48 1018.89 1019.02 1019.31 1019.63 1019.65 1019.81 1019.95 1019.98 1020.08 1020.08 1020.10 1020.38 1020.31 1020.26
1009.19 1008.35 1008.33 1007.72 1007.85 1007.82 1008.02 1007.44 1007.50 1006.82 1006.30 1006.50 1007.13 1007.52 1008.12 1009.00 1010.00 1010.91 1011.64 1012.27 1012.72 1012.93 1012.80 1013.31 1014.19 1014.90 1015.69 1016.32 1016.32 1016.56 1016.81 1017.21 1017.41 1017.90 1018.28 1018.43 1018.79 1018.90 1019.16 1019.57 1019.66 1019.85 1020.03 1020.10 1020.34 1020.38 1020.49 1020.47 1020.44
1008.44 1008.25 1007.82 1007.44 1007.52 1007.77 1007.75 1007.76 1008.09 1006.29 1006.46 1006.49 1007.28 1007.33 1007.84 1008.71 1009.84 1010.83 1011.56 1012.19 1012.64 1012.96 1012.82 1013.12 1013.56 1014.59 1015.29 1016.19 1016.37 1016.72 1017.00 1017.14 1017.54 1017.75 1018.02 1018.37 1018.71 1018.94 1018.97 1019.37 1019.64 1019.84 1020.01 1020.09 1020.05 1020.42 1020.75 1020.80 1020.56
1008.48 1008.19 1007.54 1007.48 1007.43 1007.73 1007.94 1008.16 1007.58 1008.36 1007.45 1007.29 1007.86 1008.35 1008.81 1009.54 1009.91 1010.89 1011.72 1012.27 1012.74 1012.99 1013.42 1013.09 1013.62 1014.21 1015.25 1015.69 1016.11 1016.62 1017.06 1017.21 1017.46 1017.70 1018.07 1018.29 1018.45 1018.74 1019.02 1019.05 1019.51 1019.73 1020.07 1020.30 1020.41 1020.58 1020.92 1021.06 1020.96
1008.23 1008.24 1007.44 1007.27 1007.46 1008.04 1008.22 1007.56 1008.77 1008.98 1008.33 1008.32 1008.70 1009.17 1009.42 1009.95 1010.32 1010.58 1011.00 1011.53 1012.04 1012.39 1013.06 1013.34 1013.51 1014.10 1014.87 1015.45 1015.48 1016.06 1016.53 1016.88 1017.17 1017.43 1017.75 1017.93 1018.13 1018.46 1018.81 1019.09 1019.37 1019.89 1020.11 1020.51 1020.30 1020.33 1020.73 1020.99 1021.22
1008.30 1007.76 1007.83 1007.49 1008.06 1008.33 1008.71 1008.87 1010.35 1010.13 1009.75 1009.77 1009.64 1009.83 1009.87 1009.92 1010.05 1010.40 1010.63 1011.04 1011.44 1011.90 1012.44 1013.18 1013.72 1013.99 1014.23 1014.77 1015.24 1015.70 1016.27 1016.59 1016.64 1017.06 1017.29 1017.68 1017.92 1018.22 1018.42 1018.63 1019.31 1019.99 1020.07 1020.28 1020.33 1020.55 1020.86 1021.26 1021.48
1008.13 1008.09 1008.09 1008.24 1008.74 1009.01 1009.34 1010.54 1011.18 1011.23 1010.95 1010.85 1010.75 1010.80 1010.82 1010.81 1010.92 1010.76 1010.41 1010.31 1010.81 1011.30 1011.82 1012.79 1013.48 1014.22 1014.66 1014.76 1015.03 1015.62 1015.81 1015.82 1016.15 1016.46 1016.59 1017.15 1017.37 1017.89 1018.40 1018.77 1019.25 1019.66 1019.88 1020.20 1020.60 1020.70 1021.10 1021.35 1021.56
1008.55 1008.47 1008.43 1008.86 1009.46 1009.87 1010.64 1011.22 1011.80 1011.91 1011.47 1011.49 1011.61 1011.91 1012.05 1012.04 1011.97 1011.43 1010.90 1010.26 1010.07 1010.71 1011.21 1011.78 1012.72 1013.56 1014.37 1014.77 1014.82 1015.12 1015.13 1015.59 1015.82 1015.91 1016.27 1016.60 1017.22 1017.77 1018.28 1018.70 1019.22 1019.40 1019.62 1020.01 1020.75 1021.11 1021.49 1021.63 1022.03
1008.84 1008.56 1008.73 1009.38 1009.85 1010.02 1010.74 1011.29 1011.93 1011.98 1012.06 1012.29 1012.54 1012.74 1012.90 1012.89 1012.87 1012.51 1011.72 1011.04 1010.33 1010.40 1010.80 1011.48 1012.00 1012.50 1013.38 1014.36 1015.09 1015.51 1015.40 1015.40 1015.76 1016.19 1016.37 1016.55 1016.89 1017.28 1017.77 1018.27 1018.93 1019.25 1019.57 1020.12 1020.54 1020.93 1021.38 1021.51 1021.86
1009.21 1008.99 1009.13 1009.64 1009.95 1010.23 1010.41 1010.79 1011.55 1012.12 1012.31 1012.53 1013.00 1013.51 1013.63 1013.86 1013.54 1013.07 1012.51 1012.04 1011.23 1010.57 1010.72 1011.23 1011.87 1012.68 1013.33 1013.95 1014.70 1015.56 1016.10 1016.22 1016.27 1016.07 1016.14 1016.27 1016.57 1016.88 1017.36 1018.01 1018.31 1018.92 1019.18 1019.75 1020.26 1020.45 1020.74 1021.02 1022.00
1009.55 1009.74 1009.78 1009.59 1009.93 1009.59 1010.56 1010.26 1011.78 1012.63 1012.79 1013.12 1013.55 1013.83 1014.14 1014.30 1014.24 1014.11 1013.53 1012.52 1011.57 1010.96 1010.89 1010.76 1011.55 1012.41 1013.46 1014.18 1014.51 1015.00 1015.10 1015.32 1015.24 1015.15 1015.26 1015.64 1016.20 1016.31 1016.89 1017.44 1018.00 1018.46 1018.76 1019.32 1020.00 1020.19 1020.31 1020.68 1020.90
1010.12 1010.26 1010.12 1009.93 1009.86 1010.23 1010.60 1010.88 1012.41 1013.27 1013.31 1013.82 1014.16 1014.44 1014.62 1014.99 1015.18 1014.45 1013.56 1012.56 1011.52 1011.60 1011.75 1011.22 1011.41 1011.46 1012.57 1013.30 1013.94 1014.53 1014.74 1014.88 1015.72 1016.14 1015.99 1016.33 1016.55 1016.70 1016.74 1017.28 1017.62 1017.87 1018.23 1019.07 1019.69 1020.13 1020.40 1020.61 1020.82
1011.03 1010.59 1010.53 1010.28 1010.09 1010.29 1011.36 1011.85 1013.09 1013.76 1014.69 1014.83 1014.98 1014.96 1014.92 1014.98 1015.27 1015.19 1014.59 1013.61 1012.78 1012.14 1012.10 1012.23 1012.35 1012.19 1012.14 1012.92 1013.33 1013.29 1013.09 1014.46 1015.39 1016.24 1016.73 1016.41 1016.77 1016.78 1016.76 1017.10 1017.35 1017.84 1018.31 1018.95 1019.45 1019.90 1020.13 1020.66 1020.90
1011.18 1010.66 1010.29 1010.26 1010.27 1010.62 1011.94 1012.21 1013.53 1014.71 1015.43 1015.75 1015.69 1015.46 1015.25 1015.30 1015.61 1015.62 1015.20 1014.75 1014.14 1013.26 1013.25 1013.29 1013.33 1013.52 1013.75 1013.71 1014.15 1013.97 1014.42 1015.00 1015.85 1015.78 1016.66 1016.58 1017.02 1017.01 1016.89 1016.90 1017.52 1017.88 1018.35 1018.82 1019.18 1019.63 1019.77 1020.31 1020.98
1012.10 1011.93 1011.27 1011.12 1011.31 1011.54 1012.46 1012.73 1013.72 1015.05 1015.98 1016.27 1016.41 1016.25 1015.82 1015.71 1016.00 1016.25 1016.39 1016.16 1015.78 1015.49 1015.07 1014.60 1014.30 1014.64 1014.80 1015.05 1014.88 1014.87 1015.15 1016.00 1016.60 1015.52 1017.45 1018.11 1019.14 1018.11 1018.15 1018.81 1018.09 1017.77 1018.44 1019.33 1019.51 1019.34 1019.89 1019.85 1020.85
1012.52 1012.63 1013.29 1012.76 1013.17 1012.79 1012.80 1013.81 1014.92 1015.51 1016.09 1016.44 1016.52 1016.42 1016.33 1016.38 1016.47 1016.69 1017.07 1017.02 1016.90 1016.77 1016.58 1016.26 1015.84 1015.42 1015.18 1014.78 1015.05 1015.30 1015.36 1016.47 1016.28 1016.84 1016.94 1017.25 1020.32 1020.45 1018.17 1018.99 1021.03 1020.00 1018.62 1019.07 1019.68 1019.71 1019.98 1020.23 1020.99
1012.90 1013.64 1013.60 1013.35 1012.96 1012.68 1012.91 1013.44 1013.34 1015.18 1015.92 1016.57 1016.77 1016.76 1016.87 1016.97 1017.15 1017.06 1017.44 1017.65 1017.70 1017.55 1017.31 1017.02 1016.67 1016.43 1016.31 1016.01 1015.94 1015.68 1015.62 1015.99 1016.28 1016.75 1017.74 1016.38 1018.52 1020.68 1021.55 1019.72 1021.72 1021.11 1021.07 1019.47 1019.86 1020.02 1020.12 1020.64 1021.08
1013.54 1013.54 1014.11 1014.12 1013.96 1013.30 1013.25 1013.22 1014.19 1015.19 1016.06 1016.53 1016.78 1016.98 1017.11 1017.09 1017.28 1017.48 1017.81 1018.01 1018.11 1018.15 1018.05 1017.81 1017.43 1017.18 1016.99 1016.92 1016.72 1016.72 1016.11 1016.79 1015.62 1016.55 1018.21 1018.16 1017.82 1019.67 1021.25 1021.03 1021.86 1021.44 1022.78 1020.98 1021.17 1019.87 1019.58 1020.82 1022.29
1013.94 1013.97 1014.21 1013.87 1014.28 1014.28 1014.22 1013.68 1014.61 1015.24 1015.83 1016.45 1016.77 1017.02 1017.22 1017.26 1017.32 1017.56 1017.94 1018.22 1018.38 1018.48 1018.54 1018.50 1018.19 1017.93 1017.73 1017.61 1017.47 1017.28 1017.42 1016.68 1017.53 1017.06 1017.27 1019.03 1019.28 1019.89 1020.51 1021.08 1021.76 1022.82 1022.27 1022.66 1021.33 1020.88 1020.84 1022.17 1022.97
Wind_Speed
15 10 4 2 3 2 1 2 3 2 3 1 2 3 4 4 3 2 1 11 18 19 18 18 17 18 17 16 16 16 16 15 15 14 14 13 12 13 12 11 11 11 12 11 10 10 9 9 9
11 5 2 2 3 2 1 1 5 1 2 2 4 5 3 3 3 8 12 11 20 18 17 17 18 19 18 16 16 16 16 15 14 14 14 13 12 12 12 10 10 11 11 10 9 8 8 7 7
7 1 2 2 2 3 2 4 4 2 1 3 2 1 1 2 2 11 8 20 20 18 17 16 18 18 18 17 16 16 15 14 14 14 13 12 12 11 9 9 8 10 10 9 7 6 5 5 5
3 3 3 5 8 3 3 3 3 4 3 2 1 4 4 2 4 9 20 23 21 19 18 18 17 17 19 18 18 16 16 15 14 13 12 11 11 10 9 9 8 8 8 8 6 5 4 4 3
2 1 3 5 7 3 5 6 8 7 3 5 5 5 3 1 8 17 21 21 21 20 17 19 18 17 18 19 19 17 16 14 13 13 12 11 10 9 9 8 7 8 6 6 5 3 3 3 4
4 1 6 13 9 3 3 5 10 9 5 6 7 9 5 4 13 18 21 23 20 20 19 18 18 18 18 17 17 16 14 13 13 12 11 10 9 8 8 7 6 6 5 4 4 4 4 5 5
4 4 8 7 6 6 7 7 9 9 7 6 2 6 1 11 12 17 20 23 21 19 17 16 17 18 17 17 15 15 14 13 12 10 9 9 9 8 7 6 4 3 4 3 4 5 5 5 6
2 3 5 5 8 12 3 6 2 10 9 5 5 7 5 13 14 15 15 17 21 20 18 17 16 17 16 16 16 14 14 13 11 10 9 8 7 6 6 4 4 4 4 4 3 3 2 4 6
3 6 7 10 9 5 4 8 4 1 5 5 6 3 1 16 20 17 17 15 16 18 18 18 17 16 15 15 15 14 15 13 11 10 8 7 6 7 7 4 3 2 4 3 1 2 1 4 2
5 6 9 5 8 7 6 9 5 5 7 9 9 8 8 17 17 16 16 16 19 21 21 19 19 17 16 12 14 14 12 11 10 9 8 6 5 4 3 3 1 1 2 3 1 6 5 4 4
4 8 6 10 12 9 8 6 5 6 9 17 16 14 16 18 17 17 18 19 18 17 14 17 17 16 16 13 10 8 7 7 7 10 8 6 4 4 4 3 3 3 3 3 5 5 4 6 4
5 9 9 9 10 6 13 10 9 18 18 20 12 11 18 20 20 21 22 19 20 19 19 18 16 15 15 10 10 10 9 8 7 8 9 6 5 5 4 3 4 3 2 5 4 4 5 6 5
7 8 8 14 9 11 8 16 11 13 23 14 3 10 17 19 18 17 17 16 18 20 21 20 18 15 10 12 9 9 9 8 9 8 8 6 6 5 4 4 5 4 4 5 5 5 4 5 5
3 7 7 7 8 7 9 5 6 10 13 16 10 13 14 16 15 14 16 17 19 18 19 19 20 17 13 10 12 9 8 9 8 8 8 8 5 4 4 5 6 6 5 4 5 5 5 4 5
1 5 8 4 4 3 6 5 9 21 11 8 9 5 6 2 6 11 15 16 17 14 16 18 18 18 16 14 13 9 8 8 8 7 8 8 7 6 5 6 7 7 6 6 4 5 5 5 4
2 2 3 3 3 3 5 7 19 20 12 10 8 6 5 5 2 7 13 16 16 15 15 15 15 19 18 15 13 10 10 9 8 7 7 9 9 8 7 6 7 8 7 6 5 4 4 4 4
3 1 2 4 10 3 3 8 18 16 12 12 14 13 11 8 6 2 8 13 13 14 14 16 16 19 21 17 13 13 12 9 8 8 8 9 10 10 8 8 7 8 6 5 5 4 3 4 5
2 2 1 2 5 9 4 10 14 14 13 14 14 14 14 12 12 10 9 10 14 15 15 15 14 16 15 12 12 10 10 10 9 9 9 11 10 11 9 7 8 8 7 6 5 5 4 4 5
3 2 2 2 4 5 7 9 13 13 17 18 17 16 16 15 13 12 11 9 14 15 15 17 17 15 12 11 11 12 12 11 10 10 12 12 10 11 9 8 9 8 8 7 7 6 7 6 8
1 2 5 4 6 3 6 11 10 15 17 16 17 17 18 18 18 18 15 11 6 14 16 14 15 16 13 9 8 7 8 7 8 7 8 10 13 13 11 10 9 8 7 8 9 8 7 4 9
1 1 3 2 3 5 2 4 8 10 16 16 18 16 17 18 19 18 17 17 9 11 13 13 13 12 10 10 7 3 4 3 5 10 9 11 13 13 12 11 10 10 8 8 10 10 10 7 7
4 2 8 10 5 5 2 2 3 10 13 17 18 19 18 20 20 18 17 16 13 7 11 13 13 12 9 8 7 11 11 11 10 10 10 11 14 14 13 13 12 10 8 9 8 8 8 7 9
3 13 9 7 7 4 4 5 5 5 9 16 17 17 17 17 18 23 21 22 5 1 3 5 7 10 11 12 13 10 14 7 2 6 11 10 10 12 13 12 12 11 8 8 9 9 8 7 5
11 2 2 3 4 5 4 4 3 3 6 11 14 16 17 18 19 19 20 18 13 4 3 2 5 2 6 10 12 12 14 10 9 9 9 8 7 8 11 12 10 9 8 8 7 7 9 7 5
10 3 3 4 4 1 3 2 5 3 3 8 13 15 16 16 16 18 18 18 17 11 10 10 11 13 12 11 8 8 6 3 5 8 7 10 7 8 10 12 11 8 9 9 9 8 9 9 8
4 5 3 2 2 0 1 3 4 5 4 5 8 10 13 15 14 16 15 14 14 12 13 12 12 11 11 11 11 11 13 8 7 12 9 7 6 3 6 0 5 11 11 9 8 8 7 10 7
3 2 3 3 1 4 2 3 5 7 1 5 7 9 12 12 13 12 11 11 10 10 8 7 8 7 7 8 9 10 12 11 12 12 13 12 10 10 11 12 10 1 11 10 8 8 9 9 8
3 5 3 2 4 4 4 4 3 14 4 3 5 7 9 10 11 10 8 9 10 10 9 8 7 6 4 4 5 8 13 13 12 13 12 17 14 7 7 10 7 7 7 8 8 8 9 10 7
4 3 3 1 2 3 2 3 2 5 3 2 4 4 5 7 6 8 7 7 6 8 9 8 7 7 7 6 5 4 10 10 13 13 9 11 16 12 7 8 6 6 4 7 5 10 12 11 9
0 2 1 4 5 1 2 3 5 4 3 3 3 3 4 5 6 6 5 5 6 6 6 6 5 5 6 6 7 7 6 9 9 12 13 9 10 10 8 8 8 4 3 1 6 9 9 10 8
Wind_Direction
137 139 136 190 237 279 281 191 300 245 181 184 205 213 180 79 173 50 156 153 152 157 156 160 159 153 149 143 140 136 133 131 133 130 128 131 127 121 116 113 111 110 108 108 107 107 105 104 105
141 131 99 103 247 229 233 294 250 279 78 137 167 154 174 120 83 121 135 160 155 154 159 161 162 157 153 151 146 140 135 135 134 135 137 137 127 123 120 116 113 111 108 105 103 106 111 120 125
131 46 213 161 176 226 176 212 245 147 219 184 185 72 82 96 151 159 144 154 149 159 161 161 164 158 156 155 148 143 139 139 142 143 142 138 129 123 118 110 107 108 106 103 104 110 117 126 138
160 150 117 237 216 211 235 194 234 166 141 200 258 145 134 86 184 163 151 153 154 159 163 160 164 163 158 160 153 153 150 149 147 147 143 139 132 123 111 105 101 103 105 107 111 119 134 142 158
72 161 179 230 238 224 230 226 207 202 166 174 181 182 191 91 133 148 155 159 156 161 165 164 165 167 164 164 160 159 154 150 150 148 148 143 135 123 115 114 116 112 112 118 127 148 180 185 194
138 229 201 223 227 221 223 226 177 217 203 162 187 168 191 164 164 167 167 160 161 162 165 163 169 168 168 170 166 162 159 155 154 153 152 148 137 129 125 130 128 122 128 143 158 184 203 215 223
204 194 226 232 233 238 241 190 211 215 214 196 173 216 122 190 184 179 175 160 159 166 167 169 172 172 171 170 174 167 164 162 159 159 155 152 147 142 139 137 127 110 127 158 172 191 201 214 223
161 222 199 221 227 244 188 185 225 211 232 127 187 224 208 202 183 181 184 168 160 167 169 170 175 177 177 174 177 175 169 168 165 164 166 160 155 145 140 141 121 104 117 136 162 179 216 247 247
166 220 225 224 211 220 178 214 170 315 234 211 203 232 264 167 168 174 175 172 173 167 174 173 173 177 184 180 179 182 180 179 175 175 177 173 177 165 160 90 139 111 117 135 173 194 136 104 114
211 227 212 228 221 232 213 221 212 207 223 246 235 209 158 163 169 171 179 178 186 175 179 177 176 176 183 182 182 190 186 191 188 186 186 197 177 166 145 125 204 112 93 84 132 98 101 166 99
169 238 208 231 232 239 245 236 224 224 235 244 243 191 175 175 179 178 189 194 192 179 182 186 177 178 184 186 185 186 191 190 190 190 191 187 181 175 170 157 174 169 146 144 149 133 98 98 94
222 237 218 249 226 218 234 257 242 234 242 254 263 223 180 186 189 189 189 193 191 189 183 184 181 183 193 192 191 190 193 193 193 194 188 187 193 184 184 184 169 200 166 139 146 116 100 104 103
217 251 207 240 245 241 239 241 253 252 246 250 274 203 204 200 197 196 203 192 197 195 185 182 181 182 187 203 200 199 202 199 199 198 194 191 199 196 189 167 176 171 172 163 142 125 104 98 106
215 238 267 265 250 228 212 245 199 269 297 250 230 223 217 207 201 205 201 200 201 200 190 184 181 184 181 196 208 200 209 203 204 204 202 192 207 212 194 163 162 156 171 171 156 138 128 115 124
90 285 295 290 277 242 193 205 230 349 326 293 278 282 264 304 226 198 194 204 208 202 199 188 188 186 193 192 201 208 216 208 209 214 204 202 200 197 190 174 169 161 155 160 150 128 122 115 121
171 164 333 22 294 92 229 243 5 358 348 21 29 19 345 354 331 197 197 203 205 204 202 198 193 191 194 202 196 204 209 209 212 210 210 205 200 189 178 177 168 160 156 168 168 149 121 115 121
40 106 326 312 45 34 297 343 360 9 41 48 46 45 43 31 27 255 215 214 200 203 196 202 204 203 198 201 205 206 210 214 206 212 208 204 200 184 180 176 164 166 161 171 168 143 136 130 128
50 65 265 352 28 40 91 26 22 30 51 45 43 37 32 30 16 347 319 228 205 197 191 201 204 214 211 201 202 213 210 212 208 211 206 197 194 185 182 170 159 169 166 165 173 162 131 149 149
137 120 40 72 134 76 69 59 38 36 45 41 37 34 24 16 359 355 343 310 210 197 191 193 192 201 200 203 201 207 211 209 211 208 202 188 189 181 177 174 166 173 174 168 165 145 144 139 144
100 359 49 98 111 109 148 72 60 45 42 40 29 24 19 11 7 360 352 341 249 203 197 197 201 187 190 193 209 222 220 210 200 194 187 183 179 176 177 172 173 173 155 160 163 166 162 162 175
203 71 313 302 83 124 191 107 56 26 29 26 27 22 19 15 1 357 353 338 301 192 188 192 189 187 186 173 205 194 156 166 187 192 183 185 180 175 174 173 169 163 167 169 179 178 180 166 177
276 83 308 281 234 250 274 238 75 3 24 27 17 14 11 6 3 358 346 325 289 220 154 149 160 166 184 198 188 210 214 216 221 201 190 181 183 173 169 166 164 164 165 165 173 177 175 173 181
306 323 300 294 264 261 36 263 53 9 16 9 7 6 6 9 5 357 353 345 6 240 244 166 168 158 175 179 192 203 216 226 235 215 180 183 176 174 167 168 165 161 163 162 170 173 179 185 203
316 300 85 134 181 220 26 315 78 32 354 353 359 2 1 3 5 6 358 357 348 6 18 235 214 137 166 189 194 197 210 197 174 190 202 184 187 181 168 167 161 152 152 160 166 173 179 190 219
359 325 168 160 178 122 38 247 77 129 43 3 353 355 359 4 11 9 8 4 4 18 56 69 70 55 53 61 55 65 52 90 250 186 202 182 185 184 182 164 155 142 153 154 153 152 155 170 184
16 352 8 227 202 126 129 191 140 152 77 10 4 349 356 3 12 17 13 17 25 32 37 55 80 81 84 81 79 79 79 71 69 85 57 33 345 79 77 320 154 147 142 147 138 128 129 123 128
80 67 3 106 80 239 150 161 161 156 82 10 359 355 359 3 7 19 19 14 13 31 44 58 82 92 103 110 113 113 113 114 110 95 97 93 42 356 54 48 351 308 141 132 127 118 107 107 112
31 119 197 174 219 239 184 245 254 198 247 328 328 341 345 352 360 8 19 15 9 3 5 11 21 45 60 86 123 128 122 128 121 107 120 109 108 60 18 63 17 15 346 96 115 111 118 104 93
152 158 77 50 297 266 276 209 98 156 177 267 321 331 333 340 359 356 3 11 24 22 11 7 18 25 31 24 41 89 125 131 115 117 115 121 121 131 129 94 79 27 299 43 107 87 98 95 103
94 132 204 256 172 202 310 265 157 189 197 260 309 308 324 330 348 352 3 10 20 21 19 22 36 50 44 51 52 55 56 91 112 113 115 111 108 119 122 126 132 150 75 321 104 108 96 125 131